Temp
-13 -13 -13 -13 -13 -13 -14 -13 -13 -13 -13 -13 -13 -13 -13 -13 -13 -13 -13 -13 -13 -13 -13 -13 -13 -13 -13 -13 -13 -13 -14 -14 -14 -14 -14 -13 -13 -13 -13 -13 -13 -13
-13 -13 -13 -13 -13 -14 -14 -13 -13 -13 -13 -13 -13 -13 -13 -13 -13 -13 -13 -13 -13 -13 -13 -13 -13 -13 -14 -14 -14 -14 -14 -14 -14 -14 -14 -14 -14 -14 -14 -14 -14 -14
-13 -13 -13 -13 -14 -14 -14 -14 -14 -14 -14 -14 -14 -14 -13 -13 -13 -13 -13 -13 -13 -13 -13 -14 -14 -14 -14 -14 -14 -14 -14 -14 -14 -14 -14 -14 -14 -14 -14 -14 -14 -14
-13 -13 -13 -14 -14 -14 -14 -14 -14 -14 -14 -14 -14 -14 -14 -14 -14 -13 -13 -13 -13 -14 -14 -14 -14 -14 -14 -14 -14 -14 -14 -14 -14 -14 -14 -14 -14 -14 -14 -14 -14 -14
-13 -14 -14 -14 -14 -14 -14 -14 -14 -14 -14 -14 -14 -14 -14 -14 -14 -13 -13 -13 -14 -14 -14 -14 -14 -14 -14 -14 -14 -14 -14 -14 -14 -14 -14 -14 -14 -14 -14 -14 -14 -14
-14 -14 -14 -14 -14 -14 -14 -14 -14 -14 -14 -14 -14 -14 -14 -14 -14 -14 -14 -14 -14 -14 -14 -14 -14 -14 -14 -14 -14 -14 -14 -14 -14 -14 -14 -14 -14 -14 -14 -14 -15 -15
-14 -14 -14 -14 -14 -14 -14 -14 -14 -14 -14 -14 -14 -14 -14 -14 -14 -14 -14 -14 -14 -14 -14 -14 -14 -14 -14 -14 -14 -14 -14 -14 -14 -14 -15 -15 -15 -15 -15 -15 -15 -15
-15 -15 -15 -14 -14 -14 -14 -14 -14 -14 -14 -14 -14 -14 -14 -14 -14 -14 -14 -14 -14 -14 -14 -14 -14 -14 -14 -14 -14 -14 -14 -14 -14 -15 -15 -15 -15 -15 -15 -15 -15 -15
-15 -15 -15 -15 -15 -15 -14 -14 -14 -14 -14 -14 -14 -14 -14 -14 -14 -14 -14 -14 -14 -14 -14 -14 -14 -14 -14 -14 -14 -14 -15 -15 -15 -15 -15 -15 -15 -15 -15 -15 -15 -15
-14 -15 -15 -15 -15 -15 -14 -14 -14 -14 -14 -14 -14 -14 -14 -14 -14 -14 -14 -14 -14 -14 -14 -15 -14 -14 -14 -15 -15 -15 -15 -15 -15 -15 -15 -15 -15 -15 -15 -15 -15 -15
-14 -14 -14 -14 -15 -15 -15 -15 -15 -15 -15 -15 -15 -15 -14 -14 -14 -14 -14 -14 -14 -15 -15 -15 -15 -15 -15 -15 -15 -15 -15 -15 -15 -15 -15 -15 -15 -15 -15 -15 -15 -15
-14 -14 -14 -14 -15 -15 -15 -15 -15 -15 -15 -15 -15 -15 -14 -14 -14 -14 -14 -14 -15 -15 -15 -15 -15 -15 -15 -15 -15 -15 -15 -15 -16 -15 -15 -15 -15 -15 -15 -16 -16 -16
-14 -14 -14 -14 -15 -15 -15 -15 -15 -15 -15 -15 -15 -14 -14 -14 -14 -14 -14 -14 -15 -15 -15 -15 -15 -15 -15 -15 -15 -15 -15 -16 -16 -16 -15 -15 -15 -16 -16 -16 -16 -16
-14 -14 -14 -14 -14 -14 -14 -15 -15 -15 -15 -15 -14 -14 -14 -14 -14 -14 -14 -14 -14 -15 -15 -15 -15 -15 -15 -15 -15 -16 -16 -16 -16 -16 -16 -16 -16 -16 -16 -16 -16 -16
-14 -14 -14 -14 -14 -14 -14 -14 -15 -15 -14 -14 -14 -14 -14 -14 -14 -14 -14 -14 -15 -15 -15 -15 -15 -15 -15 -15 -16 -16 -16 -16 -16 -16 -16 -16 -16 -16 -16 -16 -16 -16
-14 -14 -14 -14 -14 -14 -14 -14 -14 -14 -14 -14 -14 -14 -14 -14 -14 -14 -14 -15 -15 -15 -15 -15 -15 -15 -16 -16 -16 -16 -16 -16 -16 -16 -16 -16 -16 -17 -17 -17 -17 -17
-14 -14 -14 -14 -14 -14 -14 -14 -15 -15 -14 -14 -14 -14 -14 -14 -14 -14 -14 -15 -15 -15 -15 -15 -16 -16 -16 -16 -16 -16 -16 -16 -16 -16 -17 -17 -17 -17 -17 -17 -17 -17
-14 -14 -14 -14 -14 -14 -14 -15 -15 -15 -15 -14 -14 -14 -14 -14 -14 -14 -15 -15 -15 -15 -15 -15 -16 -16 -16 -16 -16 -16 -16 -16 -17 -17 -17 -17 -17 -17 -17 -17 -18 -18
-14 -14 -14 -14 -14 -14 -15 -15 -15 -15 -15 -14 -14 -14 -14 -14 -15 -15 -15 -15 -15 -15 -15 -15 -16 -16 -16 -16 -16 -16 -17 -17 -17 -17 -17 -17 -17 -18 -18 -18 -18 -18
-14 -15 -15 -15 -15 -15 -15 -15 -15 -15 -15 -15 -15 -14 -15 -15 -15 -15 -15 -15 -15 -15 -15 -16 -16 -16 -16 -17 -17 -17 -17 -17 -17 -17 -17 -18 -18 -18 -18 -18 -18 -18
-15 -15 -15 -15 -15 -15 -15 -15 -15 -15 -15 -15 -15 -15 -15 -15 -15 -15 -15 -15 -15 -15 -16 -16 -16 -16 -17 -17 -17 -17 -17 -17 -17 -18 -18 -18 -18 -18 -18 -18 -18 -19
-15 -15 -15 -15 -15 -15 -15 -15 -15 -15 -15 -15 -15 -15 -15 -15 -15 -15 -15 -15 -16 -16 -16 -16 -16 -17 -17 -17 -17 -17 -18 -18 -18 -18 -18 -18 -18 -18 -18 -18 -19 -19
-15 -15 -15 -15 -15 -15 -15 -15 -15 -15 -15 -15 -15 -15 -15 -15 -15 -15 -16 -16 -16 -16 -16 -16 -17 -17 -17 -17 -18 -18 -18 -18 -18 -18 -18 -18 -18 -18 -19 -19 -19 -19
-15 -15 -15 -15 -15 -15 -15 -15 -15 -15 -15 -15 -15 -15 -15 -15 -16 -16 -16 -16 -16 -16 -17 -17 -17 -17 -17 -18 -18 -18 -18 -18 -18 -18 -18 -18 -19 -19 -19 -19 -19 -20
-15 -15 -15 -16 -16 -16 -15 -15 -15 -15 -15 -15 -15 -15 -15 -16 -16 -16 -16 -16 -17 -17 -17 -17 -17 -17 -18 -18 -18 -18 -18 -18 -18 -18 -18 -19 -19 -19 -19 -20 -20 -20
-15 -15 -15 -16 -16 -16 -15 -15 -15 -15 -15 -15 -15 -16 -16 -16 -16 -17 -17 -17 -17 -17 -17 -17 -17 -18 -18 -18 -18 -18 -18 -18 -18 -19 -19 -19 -19 -19 -20 -20 -21 -21
Height
5799 5801 5802 5804 5805 5806 5808 5810 5811 5812 5813 5813 5814 5814 5814 5814 5813 5813 5812 5811 5810 5810 5809 5808 5807 5806 5805 5804 5803 5801 5800 5799 5797 5795 5794 5793 5791 5789 5788 5786 5784 5782
5799 5800 5801 5802 5804 5805 5807 5809 5809 5810 5811 5812 5812 5812 5812 5812 5811 5810 5810 5809 5808 5807 5807 5806 5805 5804 5803 5801 5800 5799 5797 5796 5794 5792 5791 5790 5788 5787 5785 5783 5781 5779
5798 5799 5799 5801 5802 5804 5806 5807 5808 5808 5809 5810 5810 5810 5810 5810 5809 5808 5808 5807 5806 5805 5805 5803 5802 5801 5800 5799 5797 5796 5794 5793 5791 5790 5788 5787 5785 5783 5781 5779 5777 5775
5797 5797 5798 5800 5802 5803 5804 5805 5806 5807 5808 5808 5809 5809 5808 5808 5807 5806 5806 5805 5804 5803 5802 5801 5800 5799 5797 5796 5794 5793 5792 5790 5789 5787 5785 5784 5782 5780 5777 5775 5773 5771
5796 5797 5798 5800 5801 5802 5803 5804 5805 5806 5806 5807 5807 5807 5807 5806 5805 5804 5804 5803 5802 5801 5800 5799 5797 5796 5794 5793 5792 5790 5789 5787 5786 5784 5782 5780 5778 5776 5774 5771 5769 5766
5795 5796 5798 5799 5800 5801 5802 5803 5803 5804 5805 5805 5805 5805 5804 5804 5803 5802 5801 5801 5800 5798 5797 5796 5795 5793 5792 5790 5789 5788 5786 5784 5783 5781 5779 5777 5775 5772 5769 5767 5764 5762
5794 5796 5797 5798 5798 5799 5800 5801 5802 5802 5802 5803 5803 5802 5802 5801 5800 5799 5799 5798 5797 5796 5794 5793 5792 5791 5789 5788 5786 5785 5783 5781 5779 5777 5775 5773 5770 5767 5765 5762 5759 5757
5793 5795 5796 5796 5797 5797 5798 5799 5800 5800 5800 5800 5800 5800 5799 5798 5798 5797 5796 5795 5794 5793 5792 5791 5789 5788 5786 5785 5783 5781 5779 5777 5775 5773 5771 5769 5766 5763 5760 5757 5755 5752
5792 5792 5793 5794 5795 5796 5796 5797 5798 5798 5798 5798 5798 5797 5796 5796 5795 5794 5793 5792 5791 5790 5789 5788 5786 5785 5783 5782 5780 5778 5776 5774 5772 5769 5767 5764 5761 5758 5755 5753 5750 5748
5790 5790 5791 5792 5793 5794 5794 5795 5795 5795 5795 5795 5795 5794 5794 5793 5792 5791 5791 5790 5788 5787 5786 5784 5783 5781 5780 5778 5776 5774 5772 5770 5768 5765 5762 5760 5757 5754 5751 5748 5746 5743
5788 5789 5790 5791 5791 5792 5792 5792 5793 5793 5793 5793 5792 5792 5791 5790 5789 5789 5788 5786 5785 5784 5783 5781 5779 5778 5777 5775 5773 5771 5768 5766 5764 5761 5758 5756 5753 5750 5747 5744 5742 5739
5787 5788 5788 5789 5789 5789 5789 5790 5790 5790 5790 5790 5790 5789 5788 5788 5787 5786 5784 5783 5782 5781 5779 5777 5776 5775 5773 5771 5769 5767 5765 5762 5760 5757 5754 5752 5749 5746 5743 5740 5738 5735
5785 5786 5786 5786 5787 5787 5787 5787 5788 5788 5787 5787 5787 5786 5786 5785 5784 5783 5781 5780 5779 5777 5776 5774 5773 5772 5770 5768 5766 5763 5761 5758 5755 5753 5750 5747 5745 5742 5739 5737 5733 5730
5782 5783 5784 5784 5784 5785 5785 5785 5785 5785 5785 5785 5784 5784 5783 5782 5781 5780 5778 5777 5776 5774 5773 5771 5769 5768 5766 5764 5761 5759 5756 5754 5751 5749 5746 5743 5741 5738 5735 5732 5729 5726
5780 5781 5782 5782 5782 5782 5782 5782 5782 5782 5782 5782 5781 5781 5780 5779 5778 5776 5775 5774 5772 5771 5769 5767 5766 5764 5762 5759 5757 5755 5752 5750 5747 5745 5742 5739 5737 5734 5731 5728 5724 5721
5778 5779 5779 5780 5780 5780 5780 5780 5779 5779 5779 5779 5778 5778 5777 5776 5775 5773 5772 5770 5769 5767 5765 5763 5762 5760 5757 5755 5753 5751 5748 5746 5744 5741 5738 5736 5733 5730 5727 5723 5720 5716
5775 5776 5776 5777 5777 5777 5777 5777 5777 5777 5776 5776 5775 5775 5774 5773 5771 5770 5769 5767 5765 5764 5761 5759 5757 5755 5753 5751 5749 5747 5745 5742 5740 5737 5734 5732 5729 5726 5723 5719 5715 5712
5772 5773 5774 5774 5774 5774 5774 5774 5774 5774 5774 5773 5772 5772 5770 5769 5768 5767 5765 5763 5762 5760 5757 5755 5753 5751 5749 5748 5746 5744 5741 5739 5736 5734 5731 5728 5725 5722 5719 5715 5712 5708
5769 5770 5770 5771 5771 5771 5771 5771 5771 5771 5771 5770 5769 5768 5767 5766 5765 5763 5761 5760 5758 5756 5753 5751 5749 5747 5746 5744 5742 5740 5738 5735 5733 5730 5728 5725 5722 5719 5715 5712 5708 5705
5766 5766 5767 5768 5768 5769 5769 5769 5768 5768 5768 5767 5766 5765 5764 5762 5761 5759 5758 5756 5754 5752 5749 5747 5746 5744 5742 5740 5738 5737 5734 5732 5730 5727 5724 5721 5718 5715 5712 5708 5705 5701
5762 5763 5764 5765 5765 5766 5766 5766 5765 5765 5765 5764 5763 5762 5760 5759 5757 5756 5754 5752 5750 5748 5746 5744 5743 5741 5739 5737 5735 5733 5731 5729 5727 5724 5721 5718 5715 5712 5709 5705 5702 5698
5759 5760 5760 5761 5762 5762 5763 5763 5762 5762 5762 5761 5759 5758 5757 5755 5754 5752 5750 5748 5746 5744 5743 5741 5740 5738 5736 5734 5732 5730 5728 5726 5723 5720 5717 5715 5712 5708 5705 5702 5698 5695
5756 5756 5757 5758 5759 5759 5760 5760 5759 5759 5758 5757 5756 5754 5753 5752 5750 5748 5747 5745 5743 5741 5740 5738 5737 5735 5734 5732 5730 5727 5725 5722 5720 5717 5714 5711 5708 5705 5702 5699 5695 5692
5752 5753 5754 5755 5756 5756 5757 5757 5756 5755 5755 5754 5752 5751 5750 5748 5747 5745 5743 5742 5740 5738 5737 5735 5734 5733 5731 5729 5727 5725 5722 5719 5717 5714 5711 5709 5705 5702 5699 5696 5692 5689
5749 5750 5751 5752 5753 5753 5753 5753 5753 5752 5751 5750 5749 5748 5746 5745 5743 5742 5740 5739 5737 5736 5734 5733 5732 5730 5728 5726 5724 5722 5719 5716 5714 5711 5708 5706 5702 5699 5696 5692 5689 5686
5746 5748 5749 5749 5750 5750 5750 5750 5749 5749 5748 5747 5746 5744 5743 5741 5740 5739 5737 5736 5734 5733 5732 5730 5729 5727 5726 5723 5721 5719 5716 5713 5711 5708 5705 5703 5700 5696 5693 5689 5686 5683
Wind_Speed
7 6 7 9 9 10 11 13 14 14 15 16 17 17 18 18 19 19 20 21 21 22 23 23 24 24 24 25 25 26 26 27 27 28 29 30 31 32 32 33 33 33
8 7 7 8 8 10 11 13 13 14 15 16 16 17 18 19 20 21 21 21 22 23 23 23 24 24 24 25 26 26 27 28 29 30 31 31 32 32 33 34 34 35
9 7 6 7 8 9 11 12 13 14 15 16 17 18 19 20 21 21 22 22 22 23 23 23 24 24 25 26 26 27 28 29 30 31 32 32 33 34 35 35 36 36
9 7 7 8 9 10 11 12 13 15 16 17 18 19 20 21 21 21 21 21 22 22 23 24 24 25 25 26 27 28 29 30 31 32 33 34 35 36 37 37 38 38
8 8 8 9 10 11 12 13 14 15 17 18 19 20 20 21 22 22 21 22 22 23 24 24 25 26 26 27 28 29 30 31 32 34 35 36 36 37 38 39 39 39
7 9 10 10 11 11 12 13 15 16 17 18 19 20 21 21 22 22 22 22 23 24 24 25 26 27 28 29 29 30 31 32 34 36 37 37 38 39 39 40 39 39
9 10 10 11 11 12 12 13 15 16 17 18 19 21 22 22 22 22 23 23 24 25 26 27 27 28 29 30 30 31 33 34 36 37 38 38 39 40 41 41 40 39
11 11 11 11 12 12 13 14 15 16 18 19 21 22 22 22 23 23 24 25 25 26 27 28 29 30 30 31 32 33 35 36 38 39 40 40 41 42 42 42 41 40
12 12 12 12 13 14 14 15 16 17 19 20 21 22 23 23 24 25 25 26 26 27 28 29 30 31 31 32 34 35 37 38 40 41 41 42 43 43 43 42 41 41
14 14 13 13 13 14 15 16 17 18 19 20 21 22 23 24 24 25 26 26 27 28 29 30 31 32 33 34 36 37 38 39 41 42 43 44 44 44 42 41 40 41
14 14 13 13 13 15 16 17 18 19 21 21 22 23 23 24 25 26 26 27 28 29 30 31 32 33 35 36 36 37 39 40 41 42 43 44 44 43 41 40 40 42
14 13 12 13 15 16 17 18 19 20 21 22 23 24 24 25 26 26 27 28 28 30 31 32 34 35 35 36 37 38 40 41 42 42 43 43 43 41 40 40 42 44
14 13 14 15 17 17 18 18 19 21 22 23 24 24 25 25 26 26 27 28 30 31 33 34 35 35 35 36 38 39 40 41 42 42 42 41 40 40 40 42 44 46
15 14 15 16 16 16 17 18 20 21 22 23 23 24 24 25 26 27 29 30 31 33 34 35 35 36 37 38 39 41 41 41 41 41 40 39 39 40 42 44 46 47
15 15 15 15 15 16 17 19 20 21 21 22 22 23 24 26 27 29 30 31 33 34 35 37 37 37 38 39 40 40 40 39 39 39 38 39 40 42 44 45 47 48
16 16 17 17 17 18 19 20 20 20 21 22 23 24 25 27 28 30 31 33 35 36 37 38 38 38 38 38 38 37 37 37 37 38 38 40 42 43 44 46 47 48
17 18 18 18 19 20 21 20 20 20 21 22 23 25 26 27 29 31 33 34 36 37 38 39 38 37 36 35 35 35 36 36 36 38 39 40 42 43 45 46 47 47
18 18 19 20 21 21 21 21 21 21 22 23 25 26 27 28 30 32 33 35 36 37 38 37 35 33 33 33 34 35 35 36 37 38 39 41 42 43 44 45 46 46
20 20 21 21 21 22 22 22 22 23 23 24 25 26 27 29 31 32 34 35 35 36 37 36 33 32 33 33 34 34 35 36 37 38 40 41 42 43 43 44 44 46
22 22 22 22 22 22 23 24 24 24 25 25 26 27 28 30 31 32 34 34 35 35 35 34 33 32 32 33 33 34 35 36 38 38 39 40 41 42 42 43 44 46
23 22 23 23 23 23 24 25 25 25 25 26 26 27 29 30 31 32 33 33 33 32 32 31 30 30 31 31 33 34 35 37 38 38 39 40 40 41 42 43 44 45
24 24 25 24 24 24 25 25 25 26 26 26 27 28 29 31 32 32 32 31 31 29 28 28 28 29 30 32 33 35 36 36 37 37 38 39 39 40 42 43 43 43
26 25 26 25 24 25 25 25 25 26 26 26 27 29 30 31 31 31 30 30 29 27 27 27 28 29 31 32 33 35 35 36 36 37 37 38 39 40 42 42 42 41
28 28 27 25 25 25 24 25 26 26 26 26 28 30 31 31 31 29 28 28 27 26 26 27 28 30 31 32 33 34 35 35 36 36 36 37 39 40 41 41 40 39
31 28 26 24 24 24 24 25 25 25 25 27 28 30 31 30 29 27 26 26 25 25 26 27 28 30 31 32 33 34 34 35 35 35 36 38 39 40 39 39 37 36
31 26 23 22 22 23 24 24 24 24 25 27 28 29 29 28 26 25 25 25 24 25 26 27 28 30 31 32 33 33 34 34 34 35 36 38 39 38 37 36 34 33
Wind_Direction
191 207 197 188 190 201 213 222 227 230 236 243 249 255 260 263 266 269 272 274 276 278 281 284 286 289 292 294 296 299 301 304 307 309 311 311 310 311 311 311 311 311
227 210 185 179 189 207 218 225 231 237 242 249 255 260 264 267 269 271 273 274 276 279 282 285 288 290 293 295 297 299 302 305 307 308 308 308 309 309 310 310 310 310
213 197 188 189 202 218 229 236 242 248 254 258 262 265 267 269 270 271 273 276 279 282 285 287 289 292 294 296 298 301 303 305 305 306 307 308 309 309 309 309 309 310
195 192 196 205 217 228 235 242 249 255 259 262 265 266 267 269 271 273 276 279 281 284 286 288 291 294 296 298 300 301 302 303 304 305 307 308 309 309 309 308 309 309
189 196 208 219 227 234 241 248 254 258 261 263 265 266 268 271 273 275 278 280 282 285 288 290 293 296 297 298 299 300 302 303 304 306 307 308 309 309 308 308 308 308
199 213 221 229 237 244 251 255 258 260 261 263 264 267 270 271 273 275 278 282 285 288 291 293 295 296 297 298 299 302 304 305 306 307 307 309 309 308 308 308 307 307
216 224 228 235 242 249 254 256 258 260 261 263 266 269 271 272 275 278 281 285 288 291 292 294 295 296 298 300 303 305 305 306 307 308 308 309 308 308 307 307 306 305
222 228 233 239 245 251 255 258 260 262 264 266 269 272 275 277 280 282 285 288 290 291 293 294 296 298 301 305 306 307 307 308 308 308 309 309 308 308 307 306 305 304
225 231 237 243 249 255 259 262 264 266 268 271 273 277 279 282 283 285 287 289 290 292 294 296 299 303 306 308 308 308 308 308 308 308 309 309 308 309 309 308 305 304
228 233 240 247 254 261 266 269 271 271 273 274 277 280 282 283 285 286 288 290 292 294 297 300 303 306 307 308 308 308 308 307 307 308 308 308 310 311 311 308 306 305
235 239 246 255 262 267 270 271 271 272 274 276 279 281 283 285 288 289 291 293 296 299 301 303 305 307 307 307 307 306 306 306 306 307 308 309 310 311 310 309 308 308
242 245 253 261 266 267 266 266 268 271 274 277 280 282 285 288 290 293 295 297 300 302 303 305 305 306 305 304 304 304 304 305 306 306 307 308 309 309 309 310 310 310
247 252 261 268 269 267 265 265 267 270 273 277 281 284 287 290 293 296 298 299 301 302 302 303 303 302 302 302 302 303 304 304 305 305 306 307 308 309 310 310 311 310
250 256 264 268 268 267 266 267 268 271 276 280 284 287 290 292 294 296 298 299 300 301 301 302 301 301 300 300 301 302 303 303 303 304 306 307 308 310 311 311 311 312
250 255 258 261 266 269 269 269 272 276 279 282 285 287 289 292 294 297 298 300 301 301 302 302 301 300 300 300 301 301 302 302 304 305 307 309 310 311 312 312 313 313
249 251 252 257 264 269 270 271 274 276 278 281 283 287 290 293 296 298 299 300 301 301 301 301 300 299 299 299 300 300 302 304 306 307 309 311 312 313 313 314 315 315
245 246 249 255 263 268 270 271 272 273 276 280 284 289 293 296 297 298 298 299 299 300 300 299 299 297 297 298 300 302 304 306 308 310 312 312 313 313 314 315 316 316
240 244 250 258 263 267 269 270 270 273 279 283 288 292 295 296 297 297 297 297 297 297 298 297 296 295 297 300 303 305 306 308 310 312 312 312 313 315 316 316 316 317
240 246 253 258 261 264 267 269 271 276 282 286 290 293 295 295 296 296 297 297 297 298 298 296 294 296 301 305 306 307 309 310 312 312 312 313 315 316 316 316 317 318
242 247 252 255 259 262 265 267 272 279 284 289 292 294 294 295 296 297 298 299 299 300 299 298 297 300 304 306 307 309 311 311 311 312 313 315 316 316 317 317 318 319
243 247 250 253 256 260 263 268 274 281 287 290 292 293 293 295 296 298 299 301 301 302 301 301 302 304 306 307 309 310 311 310 311 313 315 316 316 317 318 319 320 320
242 245 248 251 255 260 265 270 277 283 288 290 290 291 292 294 296 298 299 300 302 302 303 304 305 306 307 309 310 310 310 311 312 314 316 316 317 318 319 320 321 321
242 245 248 251 257 263 266 271 278 283 286 287 288 289 291 293 295 297 298 300 302 303 304 305 306 307 309 309 309 309 310 312 314 316 316 317 318 320 321 321 321 322
243 246 250 254 258 262 265 272 278 282 284 285 286 288 290 293 295 296 297 299 301 302 304 305 307 308 309 309 308 310 312 314 315 316 316 318 320 320 320 321 322 325
246 250 257 259 258 260 266 273 278 280 282 283 285 287 290 292 293 295 296 298 300 302 304 306 307 308 308 308 309 311 313 314 315 316 318 320 320 320 321 323 326 328
250 257 261 258 256 261 268 273 277 279 280 283 285 287 289 291 292 294 296 298 300 303 305 307 308 308 308 309 310 311 313 314 315 317 319 320 321 321 324 327 329 330